Regional Weather Roundup
Issued by NWS

Home | Current Version | Previous Version | Graphics & Text | Print | Product List | Glossary On
Versions: 1 2 3 4 5 6 7 8 9 10 11 12 13 14 15 16 17 18 19 20 21 22 23 24 25 26 27 28 29 30 31 32 33 34 35 36 37 38 39 40 41 42 43 44 45 46 47 48 49 50
000
ASUS43 KLSX 301959
RWRMO

WEATHER SUMMARY FOR MISSOURI
NATIONAL WEATHER SERVICE SPRINGFIELD MO
300 PM CDT TUE JUN 30 2015

NOTE: "FAIR" INDICATES FEW OR NO CLOUDS BELOW 12,000 FEET WITH NO
       SIGNIFICANT WEATHER AND/OR OBSTRUCTIONS TO VISIBILITY.
       CURRENT SKY AND/OR WEATHER CONDITIONS ARE NOT AVAILABLE FOR
       CHILLICOTHE AND FARMINGTON.

MOZ001>031-035>038-043-044-053-054-302100-
...NORTHERN AND WESTERN MISSOURI...

CITY           SKY/WX    TMP DP  RH WIND       PRES   REMARKS
KANSAS CTY INT CLOUDY    84  68  58 CALM      29.94S
KANSAS C DTWN  PTSUNNY   85  64  49 W6        29.92S
LEE`S SUMMIT   PTSUNNY   83  66  56 NW5       29.94F
ST JOSEPH      CLOUDY    84  68  58 NE6       29.92F
CHILLICOTHE      N/A     81  70  69 W3        29.93S
KIRKSVILLE     MOSUNNY   80  66  62 W7        29.91S

$$
MOZ066>068-077>081-088>096-101>105-302100-
...SOUTHWEST MISSOURI...

CITY           SKY/WX    TMP DP  RH WIND       PRES   REMARKS
SPRINGFIELD    PTSUNNY   85  66  53 W8        29.96F
JOPLIN         PTSUNNY   88  70  55 VRB6      29.95F HX  93

$$
MOZ032>034-039>042-045>050-055>058-069>072-302100-
...CENTRAL MISSOURI...

CITY           SKY/WX    TMP DP  RH WIND       PRES   REMARKS
COLUMBIA       MOSUNNY   82  68  62 W7        29.92S
JEFFERSON CITY MOSUNNY   84  65  52 W12       29.91R
ROLLA          MOSUNNY   82  68  62 W9        29.93R
SEDALIA        CLOUDY    83  69  62 W6        29.94F
OSAGE BEACH    PTSUNNY   82  68  61 W5        29.94S

$$
MOZ051-052-059>065-302100-
...EAST CENTRAL MISSOURI...

CITY           SKY/WX    TMP DP  RH WIND       PRES   REMARKS
ST LOUIS INTL  MOSUNNY   85  67  54 W10G17    29.88S
SPIRIT OF STL  CLOUDY    83  69  62 W9        29.88S
ST CHARLES     SUNNY     83  67  58 W9        29.86S

$$
MOZ072>076-082>087-097>100-106>115-302100-
...SOUTH CENTRAL AND SOUTHEAST MISSOURI...

CITY           SKY/WX    TMP DP  RH WIND       PRES   REMARKS
CAPE GIRARDEAU SUNNY     86  66  51 W5        29.89S
FARMINGTON     SUNNY     82  66  57 W5        29.95F
POPLAR BLUFF   SUNNY     86  68  54 W7        29.90F
WEST PLAINS    SUNNY     83  66  56 W7        29.97F

$$



USA.gov is the U.S. government's official web portal to all federal, state and local government web resources and services.